Stations météo

réclame
Mon MeteoGroup
Altnaharra, Grande-Bretagne (3044): Température de l'air & dewpoint: 23.01.2020 00:00:00 - 29.01.2020 00:00:00 (GMT)Altnaharra, Grande-Bretagne (3044): Température de l'air -20cm & Température de l'air -100cm: 23.01.2020 00:00:00 - 29.01.2020 00:00:00 (GMT)Altnaharra, Grande-Bretagne (3044): Vitesse du vent & gusts: 23.01.2020 00:00:00 - 29.01.2020 00:00:00 (GMT)Altnaharra, Grande-Bretagne (3044): Direction du vent: 23.01.2020 00:00:00 - 29.01.2020 00:00:00 (GMT)Altnaharra, Grande-Bretagne (3044): reduced air pressure: 23.01.2020 00:00:00 - 29.01.2020 00:00:00 (GMT)Altnaharra, Grande-Bretagne (3044): visibility: 23.01.2020 00:00:00 - 29.01.2020 00:00:00 (GMT)Altnaharra, Grande-Bretagne (3044): Ensoleillement: 23.01.2020 00:00:00 - 29.01.2020 00:00:00 (GMT)Altnaharra, Grande-Bretagne (3044): Quantités de précipitations: 23.01.2020 00:00:00 - 29.01.2020 00:00:00 (GMT)
Date & Time tt [°C] td [°C] tt -20cm [°C] tt -100cm [°C] ff [km/h] ff [knt] fx [km/h] fx [knt] dd ppp [hPa] vv [km] sd [min] rr [mm]
29.01.2020 00:00:00 4,2 2,2 - - 37 20 70 38 WSW 985,0 2,8 - 0,4
28.01.2020 23:00:00 4,8 2,0 - - 37 20 59 32 SW 983,3 10 0 0,2
28.01.2020 22:00:00 3,6 1,7 - - 13 7 - - S 983,4 27 0 0,0
28.01.2020 21:00:00 2,7 1,7 - - 9 5 - - S 983,9 14 0 0,0
28.01.2020 20:00:00 2,3 0,6 - - 15 8 - - W 984,0 40 0 0,0
28.01.2020 19:00:00 1,9 0,3 - - 16 9 - - S 983,9 21 0 0,0
28.01.2020 18:00:00 -0,4 -1,7 - - 4 2 - - WSW 983,7 40 0 0,0
28.01.2020 17:00:00 -1,2 -2,8 - - 4 2 - - WNW 983,6 35 0 0,0
28.01.2020 16:00:00 0,9 -1,9 - - 5 3 - - W 983,0 50 18 0,0
28.01.2020 15:00:00 2,6 -2,0 - - 4 2 - - SW 982,5 45 54 0,0
28.01.2020 14:00:00 3,5 -0,4 - - 4 2 - - SW 982,5 45 60 0,0
28.01.2020 13:00:00 3,5 0,1 - - 4 2 - - SW 982,5 45 60 0,0
28.01.2020 12:00:00 1,5 -0,8 - - 5 3 - - ESE 982,5 50 60 0,0
28.01.2020 11:00:00 -0,5 -1,3 - - 5 3 - - E 982,8 40 60 0,0
28.01.2020 10:00:00 -3,3 -3,6 - - 2 1 - - E 982,5 40 12 0,0
28.01.2020 09:00:00 -4,4 -4,9 5,0 6,0 2 1 - - N 982,6 35 0 0,0
28.01.2020 08:00:00 -3,9 -4,6 - - 4 2 - - NW 982,4 40 0 0,0
28.01.2020 07:00:00 -2,1 -3,1 - - 5 3 - - S 982,0 45 0 0,0
28.01.2020 06:00:00 -0,6 -1,5 - - 16 9 - - WSW 982,0 50 0 0,0
28.01.2020 05:00:00 1,4 -0,7 - - 5 3 - - SSW 981,7 40 0 0,0
28.01.2020 04:00:00 1,7 -1,3 - - 15 8 - - S 981,9 30 0 0,0
28.01.2020 03:00:00 0,4 -1,4 - - 11 6 - - NW 982,3 50 0 0,0
28.01.2020 02:00:00 -1,1 -3,1 - - 9 5 - - W 982,5 50 0 0,0
28.01.2020 01:00:00 1,6 -1,9 - - 11 6 - - E 982,2 35 0 0,0
28.01.2020 00:00:00 -1,2 -4,0 - - 5 3 - - W 982,6 35 - 0,0
27.01.2020 23:00:00 -1,1 -2,9 - - 2 1 - - NNW 982,4 45 0 0,0
27.01.2020 22:00:00 -0,3 -2,1 - - 9 5 - - NNW 982,9 50 0 0,0
27.01.2020 21:00:00 0,1 -1,9 - - 9 5 - - WNW 983,2 50 0 0,0
27.01.2020 20:00:00 1,3 -0,9 - - 8 4 - - SW 983,6 35 0 0,0
27.01.2020 19:00:00 1,2 -0,2 - - 11 6 - - S 983,8 50 0 0,0
27.01.2020 18:00:00 1,4 0,4 - - 16 9 - - S 983,4 50 0 0,2
27.01.2020 17:00:00 2,0 -1,3 - - 16 9 - - S 983,6 50 0 0,0
27.01.2020 16:00:00 1,8 -2,1 - - 15 8 - - S 983,5 50 0 0,0
27.01.2020 15:00:00 2,2 -1,3 - - 18 10 - - S 983,5 50 36 0,0
27.01.2020 14:00:00 3,1 -0,3 - - 21 11 - - S 983,8 30 6 0,0
27.01.2020 13:00:00 1,9 -0,4 - - 15 8 - - S 984,5 50 42 0,0
27.01.2020 12:00:00 1,8 0,2 - - 15 8 - - S 985,0 50 24 0,2
27.01.2020 11:00:00 2,2 0,6 - - 18 10 - - S 985,0 12 0 0,0
27.01.2020 10:00:00 1,7 0,2 - - 22 12 - - SSE 984,8 21 0 0,2
27.01.2020 09:00:00 1,6 -0,4 5,7 6,0 11 6 - - NNW 984,6 50 0 0,0
27.01.2020 08:00:00 2,6 -0,6 - - 11 6 - - SE 984,7 50 0 0,0
27.01.2020 07:00:00 1,6 -0,6 - - 9 5 46 25 S 985,4 40 0 0,0
27.01.2020 06:00:00 3,5 -1,4 - - 29 16 48 26 ESE 985,5 40 0 0,0
27.01.2020 05:00:00 3,5 -1,9 - - 28 15 55 30 ESE 986,4 50 0 0,0
27.01.2020 04:00:00 3,2 -2,1 - - 37 20 65 35 SE 987,1 45 0 0,0
27.01.2020 03:00:00 3,2 -2,3 - - 35 19 59 32 SE 988,5 45 0 0,0
27.01.2020 02:00:00 3,0 -2,7 - - 35 19 50 27 ESE 989,7 30 0 0,0
27.01.2020 01:00:00 2,8 -3,6 - - 9 5 - - ESE 991,1 50 0 0,0
27.01.2020 00:00:00 -0,6 -3,2 - - 8 4 - - ENE 992,7 35 - 0,0
26.01.2020 23:00:00 -1,1 -4,5 - - 8 4 - - W 993,6 27 0 0,0
26.01.2020 22:00:00 2,7 -2,2 - - 5 3 - - WNW 994,0 45 0 0,0
26.01.2020 21:00:00 1,4 -2,1 - - 8 4 - - NNW 994,7 35 0 0,0
26.01.2020 20:00:00 1,7 -2,0 - - 8 4 - - S 995,1 45 0 0,0
26.01.2020 19:00:00 2,4 -1,4 - - 22 12 - - S 994,9 40 0 0,0
26.01.2020 18:00:00 2,1 -0,9 - - 16 9 - - S 994,8 40 0 0,0
26.01.2020 17:00:00 2,3 -0,6 - - 16 9 - - S 994,7 50 0 0,0
26.01.2020 16:00:00 3,1 0,9 - - 9 5 - - SSE 994,7 50 0 0,0
26.01.2020 15:00:00 3,4 0,5 - - 8 4 48 26 SSE 994,2 50 24 0,4
26.01.2020 14:00:00 4,8 1,5 - - 9 5 - - WSW 994,4 40 42 0,0
26.01.2020 13:00:00 5,7 0,9 - - 15 8 - - SSW 993,8 35 18 0,0
26.01.2020 12:00:00 5,8 2,4 - - 15 8 - - SSW 993,6 24 0 0,0
26.01.2020 11:00:00 5,5 3,2 - - 15 8 - - S 993,2 40 0 0,0
26.01.2020 10:00:00 5,5 3,7 - - 13 7 - - S 993,2 35 0 0,8
26.01.2020 09:00:00 6,5 4,3 5,7 6,0 22 12 48 26 S 992,1 15 0 0,0
26.01.2020 08:00:00 7,3 3,9 - - 31 17 - - SSE 991,1 50 0 0,0
26.01.2020 07:00:00 7,4 4,4 - - 16 9 - - SSE 991,9 45 0 0,0
26.01.2020 06:00:00 7,4 4,1 - - 13 7 - - SSE 992,7 50 0 0,0
26.01.2020 05:00:00 8,0 3,7 - - 21 11 - - SSE 993,1 50 0 0,0
26.01.2020 04:00:00 7,8 3,1 - - 13 7 - - SSE 993,6 50 0 0,0
26.01.2020 03:00:00 8,5 3,0 - - 9 5 - - ESE 994,7 50 0 0,0
26.01.2020 02:00:00 7,2 2,9 - - 8 4 - - W 995,9 50 0 0,0
26.01.2020 01:00:00 7,6 3,4 - - 9 5 - - S 996,8 50 0 0,0
26.01.2020 00:00:00 7,6 4,2 - - 8 4 - - S 997,9 50 - 0,0
25.01.2020 23:00:00 8,1 4,5 - - 21 11 - - SE 998,5 50 0 0,0
25.01.2020 22:00:00 8,1 4,8 - - 9 5 - - SSE 999,2 50 0 0,0
25.01.2020 21:00:00 7,8 4,7 - - 9 5 - - SSE 1000,0 50 0 0,0
25.01.2020 20:00:00 8,2 4,7 - - 18 10 - - SSE 1000,5 50 0 0,0
25.01.2020 19:00:00 7,8 4,5 - - 16 9 - - SE 1000,9 50 0 0,0
25.01.2020 18:00:00 8,1 4,9 - - 16 9 - - S 1001,3 40 0 0,0
25.01.2020 17:00:00 8,2 4,8 - - 16 9 - - S 1001,5 50 0 0,0
25.01.2020 16:00:00 8,4 5,0 - - 16 9 - - S 1001,4 50 0 0,0
25.01.2020 15:00:00 8,9 5,0 - - 22 12 - - S 1001,6 50 0 0,0
25.01.2020 14:00:00 8,8 4,9 - - 26 14 52 28 SSE 1001,9 50 0 0,0
25.01.2020 13:00:00 8,6 4,9 - - 28 15 - - SSE 1002,1 40 0 0,0
25.01.2020 12:00:00 8,8 4,5 - - 22 12 52 28 SSE 1003,0 50 0 0,0
25.01.2020 11:00:00 8,2 4,2 - - 26 14 46 25 S 1002,7 50 0 0,0
25.01.2020 10:00:00 7,2 4,0 - - 9 5 - - S 1003,3 40 0 0,0
25.01.2020 09:00:00 6,8 4,1 5,7 6,0 8 4 - - SSW 1003,4 50 0 0,0
25.01.2020 08:00:00 6,8 4,1 - - 5 3 - - SW 1004,0 50 0 0,0
25.01.2020 07:00:00 6,9 4,4 - - 5 3 - - W 1004,2 50 0 0,0
25.01.2020 06:00:00 7,3 4,1 - - 11 6 - - SSW 1004,9 40 0 0,0
25.01.2020 05:00:00 7,1 3,7 - - 11 6 46 25 S 1005,1 50 0 0,0
25.01.2020 04:00:00 7,1 4,2 - - 28 15 48 26 S 1005,0 50 0 0,0
25.01.2020 03:00:00 7,7 4,5 - - 29 16 46 25 S 1005,8 50 0 0,0
25.01.2020 02:00:00 7,9 5,0 - - 18 10 - - S 1006,9 50 0 0,0
25.01.2020 01:00:00 7,2 6,3 - - 11 6 - - SSE 1008,0 50 0 0,0
25.01.2020 00:00:00 7,9 6,0 - - 22 12 - - S 1009,0 50 - 0,0
24.01.2020 23:00:00 7,7 5,6 - - 16 9 - - S 1009,8 30 0 0,0
24.01.2020 22:00:00 6,6 5,1 - - 9 5 - - SE 1010,9 50 0 0,0
24.01.2020 21:00:00 6,6 5,0 - - 8 4 - - ENE 1011,8 50 0 0,0
24.01.2020 20:00:00 6,2 5,0 - - 9 5 - - S 1012,8 50 0 0,0
24.01.2020 19:00:00 5,8 5,0 - - 8 4 - - SSW 1013,3 11 0 0,0
24.01.2020 18:00:00 5,4 4,3 - - 9 5 - - ENE 1013,8 45 0 0,2
24.01.2020 17:00:00 5,4 4,4 - - 8 4 - - SE 1014,3 45 0 0,0
24.01.2020 16:00:00 6,1 4,2 - - 9 5 - - SSW 1014,6 50 0 0,0
24.01.2020 15:00:00 6,4 4,2 - - 9 5 - - SSW 1014,9 16 0 0,0
24.01.2020 14:00:00 6,7 4,0 - - 16 9 - - WSW 1015,3 20 36 0,0
24.01.2020 13:00:00 6,6 4,3 - - 16 9 - - W 1015,7 45 6 0,0
24.01.2020 12:00:00 6,0 3,1 - - 22 12 - - WSW 1016,2 45 0 0,0
24.01.2020 11:00:00 6,1 3,2 - - 22 12 - - WSW 1016,2 30 0 0,0
24.01.2020 10:00:00 5,5 3,5 - - 13 7 - - WSW 1016,5 50 0 0,2
24.01.2020 09:00:00 5,1 2,9 5,9 5,9 8 4 - - SE 1016,6 35 0 0,0
24.01.2020 08:00:00 4,8 3,1 - - 13 7 48 26 SW 1016,0 35 0 0,2
24.01.2020 07:00:00 5,5 2,7 - - 37 20 63 34 WSW 1014,9 35 0 0,0
24.01.2020 06:00:00 5,6 2,8 - - 34 18 63 34 SW 1014,9 35 0 0,0
24.01.2020 05:00:00 5,6 1,9 - - 37 20 57 31 SW 1015,2 50 0 0,2
24.01.2020 04:00:00 6,2 2,3 - - 29 16 - - SW 1016,0 40 0 0,0
24.01.2020 03:00:00 6,5 1,9 - - 26 14 - - WSW 1016,9 45 0 0,0
24.01.2020 02:00:00 6,4 1,0 - - 16 9 - - WSW 1017,6 50 0 0,0
24.01.2020 01:00:00 6,6 2,7 - - 28 15 - - W 1018,2 28 0 0,0
24.01.2020 00:00:00 6,7 3,7 - - 24 13 50 27 W 1018,4 30 - 0,0
23.01.2020 23:00:00 6,6 4,8 - - 31 17 - - W 1017,5 30 0 0,0
23.01.2020 22:00:00 7,1 5,0 - - 31 17 48 26 W 1018,0 40 0 0,0
23.01.2020 21:00:00 7,1 5,5 - - 28 15 46 25 W 1018,3 45 0 0,0
23.01.2020 20:00:00 7,7 5,4 - - 28 15 - - W 1018,8 23 0 0,0
23.01.2020 19:00:00 7,5 6,2 - - 8 4 - - W 1019,0 45 0 0,0
23.01.2020 18:00:00 8,2 6,7 - - 13 7 - - W 1019,0 24 0 0,2
23.01.2020 17:00:00 8,6 7,4 - - 21 11 - - W 1018,7 6 0 0,8
23.01.2020 16:00:00 9,2 7,8 - - 21 11 - - SSW 1019,0 9 0 0,2
23.01.2020 15:00:00 9,1 7,7 - - 21 11 - - SSW 1019,5 6 0 0,2
23.01.2020 14:00:00 8,8 7,5 - - 16 9 - - SSW 1020,6 3,4 0 0,2
23.01.2020 13:00:00 8,6 7,3 - - 16 9 - - SSW 1021,6 6 0 0,2
23.01.2020 12:00:00 8,8 7,3 - - 18 10 - - SSW 1022,3 8 0 0,4
23.01.2020 11:00:00 8,4 6,8 - - 22 12 - - SW 1023,1 9 0 0,0
23.01.2020 10:00:00 8,2 6,3 - - 21 11 - - SW 1023,5 12 0 0,0
23.01.2020 09:00:00 8,3 5,0 5,7 5,7 8 4 - - SSW 1024,3 50 0 0,0
23.01.2020 08:00:00 8,4 5,0 - - 11 6 - - S 1025,0 35 0 0,0
23.01.2020 07:00:00 8,3 5,4 - - 21 11 48 26 S 1025,1 50 0 0,0
23.01.2020 06:00:00 8,1 5,4 - - 18 10 50 27 SSW 1025,3 45 0 0,0
23.01.2020 05:00:00 8,4 4,8 - - 34 18 57 31 SW 1025,5 30 0 0,0
23.01.2020 04:00:00 8,7 4,4 - - 35 19 63 34 SW 1025,9 50 0 0,0
23.01.2020 03:00:00 8,7 4,6 - - 41 22 63 34 SW 1026,2 50 0 0,0
23.01.2020 02:00:00 8,6 5,4 - - 39 21 63 34 SW 1027,0 50 0 0,0
23.01.2020 01:00:00 8,9 5,7 - - 22 12 65 35 S 1028,3 50 0 0,0
23.01.2020 00:00:00 9,3 5,3 - - 29 16 57 31 SW 1028,3 50 - 0,0

tt = Température de l'air
td = dewpoint
tt -20cm = Température de l'air -20cm
tt -100cm = Température de l'air -100cm
ff = Vitesse du vent
fx = gusts
dd = Direction du vent
ppp = reduced air pressure
vv = visibility
sd = Ensoleillement
rr = Quantités de précipitations

stations d'obs. à proximité